Location: Unspecified
(0.0000°N, 0.0000°E)
Time: 09:43:37
(UTC+02:00)

Iridium 15 - Visible Passes

Search period start: 03 June 2015 00:00
Search period end: 13 June 2015 00:00
Orbit: 776 x 779 km, 86.4° (Epoch: 02 June)

Date Brightness Start Highest point End Pass type
(mag) Time Alt. Az. Time Alt. Az. Time Alt. Az.
03 Jun 8.9 20:19:22 10° NW 20:22:49 17° W 20:25:58 10° SW visible
04 Jun 6.3 07:10:35 10° S 07:15:48 76° E 07:21:00 10° N visible
05 Jun 7.7 06:37:40 10° SSE 06:42:18 34° E 06:46:59 10° NNE visible
06 Jun 8.8 06:05:56 10° SE 06:08:43 15° E 06:11:49 10° NE visible
07 Jun 6.0 07:10:41 10° S 07:15:52 66° W 07:21:00 10° N visible
08 Jun 6.7 06:37:18 10° SSE 06:42:22 55° E 06:47:28 10° NNE visible
09 Jun 8.1 06:04:44 10° SE 06:08:51 25° E 06:13:06 10° NE visible
10 Jun 9.0 05:34:23 10° ESE 05:35:13 11° E 05:36:33 10° ENE visible
10 Jun 6.5 07:11:02 10° SSW 07:15:55 40° W 07:20:45 10° NNW visible
11 Jun 6.0 06:37:13 10° S 06:42:26 89° ESE 06:47:39 10° N visible
12 Jun 7.3 06:04:08 10° SSE 06:08:57 40° E 06:13:49 10° NNE visible
